TimeCDT,TemperatureF,Dew PointF,Humidity,Sea Level PressureIn,VisibilityMPH,Wind Direction,Wind SpeedMPH,Gust SpeedMPH,PrecipitationIn,Events,Conditions,WindDirDegrees,DateUTC
12:53 AM,66.9,64.0,90,30.10,10.0,Calm,Calm,-,N/A,,Partly Cloudy,0,2012-09-28 05:53:00
1:53 AM,66.9,63.0,87,30.09,10.0,East,3.5,-,N/A,,Scattered Clouds,90,2012-09-28 06:53:00
2:53 AM,66.0,62.1,87,30.08,9.0,East,3.5,-,N/A,,Mostly Cloudy,90,2012-09-28 07:53:00
3:53 AM,64.9,62.1,90,30.08,9.0,East,4.6,-,N/A,,Mostly Cloudy,100,2012-09-28 08:53:00
4:53 AM,64.9,62.1,90,30.08,10.0,Calm,Calm,-,N/A,,Overcast,0,2012-09-28 09:53:00
5:53 AM,64.9,62.1,90,30.08,9.0,ESE,3.5,-,N/A,,Mostly Cloudy,110,2012-09-28 10:53:00
6:53 AM,64.0,61.0,90,30.10,8.0,North,3.5,-,N/A,,Mostly Cloudy,350,2012-09-28 11:53:00
7:53 AM,66.9,64.0,90,30.11,8.0,Calm,Calm,-,N/A,,Mostly Cloudy,0,2012-09-28 12:53:00
8:53 AM,71.1,64.9,81,30.12,10.0,East,3.5,-,N/A,,Mostly Cloudy,100,2012-09-28 13:53:00
9:53 AM,75.9,64.9,69,30.12,10.0,Calm,Calm,-,N/A,,Mostly Cloudy,0,2012-09-28 14:53:00
10:53 AM,80.1,66.0,62,30.12,10.0,Calm,Calm,-,N/A,,Mostly Cloudy,0,2012-09-28 15:53:00
11:53 AM,84.0,66.9,56,30.10,10.0,West,4.6,-,N/A,,Scattered Clouds,260,2012-09-28 16:53:00
12:53 PM,84.0,64.9,53,30.08,10.0,WNW,4.6,-,N/A,,Mostly Cloudy,290,2012-09-28 17:53:00
1:53 PM,82.9,64.9,54,30.05,10.0,Calm,Calm,-,N/A,,Mostly Cloudy,0,2012-09-28 18:53:00
2:53 PM,84.9,64.0,49,30.03,10.0,Variable,5.8,-,N/A,,Mostly Cloudy,0,2012-09-28 19:53:00
3:53 PM,81.0,63.0,54,30.01,10.0,WSW,6.9,-,N/A,,Mostly Cloudy,250,2012-09-28 20:53:00
4:53 PM,79.0,64.0,60,30.01,10.0,North,5.8,-,N/A,,Mostly Cloudy,10,2012-09-28 21:53:00
5:53 PM,77.0,64.0,64,30.01,10.0,Calm,Calm,-,N/A,,Mostly Cloudy,0,2012-09-28 22:53:00
6:53 PM,73.9,64.9,73,30.00,10.0,Calm,Calm,-,N/A,,Overcast,0,2012-09-28 23:53:00
7:53 PM,73.0,64.9,76,30.01,10.0,NE,3.5,-,N/A,,Overcast,40,2012-09-29 00:53:00
8:53 PM,71.1,64.9,81,30.02,10.0,North,4.6,-,N/A,,Overcast,360,2012-09-29 01:53:00
9:53 PM,71.1,64.0,78,30.03,10.0,Calm,Calm,-,N/A,,Overcast,0,2012-09-29 02:53:00
10:53 PM,69.1,64.9,87,30.03,10.0,Calm,Calm,-,N/A,,Overcast,0,2012-09-29 03:53:00
11:53 PM,68.0,64.9,90,30.03,9.0,Calm,Calm,-,N/A,,Overcast,0,2012-09-29 04:53:00